Simultaneous Nadir Overpasses (SNOs) Predictions

Prediction of SNOs between GOES-17 and TERRA Satellite Orbit:

Table of predicted SNOs for the next 14.0 days since TLE Epoch: 11/23/2024
Index Date Time (GOES-17) GOES-17 Lat,Lon TERRA Lat,Lon Distance(km) Time Diff (sec)
1 11/24/2024 16:28:28 0.01,-104.73 -0.40,-102.63 237.44 80
2 11/25/2024 04:48:18 -0.00,-104.68 -0.59,-107.46 316.14 80
3 11/27/2024 04:27:22 -0.00,-104.68 0.34,-103.06 185.05 80
4 11/27/2024 16:47:04 0.00,-104.73 0.65,-107.85 353.78 80
5 11/29/2024 16:31:27 -0.00,-104.74 -0.27,-103.44 147.79 80
6 11/30/2024 04:51:16 0.01,-104.70 -0.77,-108.26 405.17 80
7 12/02/2024 04:30:19 0.01,-104.70 0.20,-103.86 95.99 80
8 12/02/2024 16:49:59 -0.01,-104.74 0.82,-108.64 443.46 80
9 12/04/2024 16:34:20 -0.00,-104.74 -0.08,-104.22 58.41 80
10 12/05/2024 04:54:10 0.00,-104.70 -0.88,-109.05 493.93 80
